Boulder City, NV

3:42 AM PDT on May 24, 2017 (GMT -0700)
Boulder City

Weather History for KBVU - January, 2014

Change the Weather History Date:

Saturday, January 11, 2014

  Actual Average (KLAS) Record (KLAS)
Temperature  
Mean Temperature 52 °F -  
Max Temperature 64 °F 57 °F 73 °F (1938)
Min Temperature 39 °F 35 °F 14 °F (1937)
Degree Days  
Heating Degree Days 14    
Growing Degree Days 2 (Base 50)    
Moisture  
Dew Point 27 °F    
Average Humidity 43    
Maximum Humidity 65    
Minimum Humidity 22    
Precipitation  
Precipitation 0.00 in - - ()
Sea Level Pressure  
Sea Level Pressure 30.11 in    
Wind  
Wind Speed 2 mph (ENE)    
Max Wind Speed 10 mph    
Max Gust Speed -    
Visibility 10 miles    
Events      
Averages and records for this station are not official NWS values.
T = Trace of Precipitation, MM = Missing Value Source: NWS Daily Summary

Daily Weather History Graph

Daily Weather History Graph

Search for Another Location

Airport or City:

Trip Planner

Search our weather history database for the weather conditions in past years. The results will help you decide how hot, cold, wet, or windy it might be!

Date:

Astronomy

Jan. 11, 2014 Rise Set
Actual Time 6:50 AM PST 4:45 PM PST
Civil Twilight 6:21 AM PST 5:13 PM PST
Nautical Twilight 5:50 AM PST 5:44 PM PST
Astronomical Twilight 5:19 AM PST 6:15 PM PST
Moon 1:30 PM PST (1/11) 3:00 AM PST (1/11)
Length of Visible Light 10h 51m
Length of Day
9h 55m
Waxing Gibbous, 84% of the Moon is Illuminated
Jan 11
Waxing Gibbous
Jan 15
Full
Jan 23
Last Quarter
Jan 30
New
Feb 6
First Quarter

Hourly Weather History & Observations

Time (PST) Temp. Windchill Dew Point Humidity Pressure Visibility Wind Dir Wind Speed Gust Speed Precip Events Conditions
12:15 AM 48.2 °F - 28.4 °F 46% 30.18 in 10.0 mi ENE 4.6 mph - N/A   Clear
12:35 AM 48.2 °F - 28.4 °F 46% 30.18 in 10.0 mi Calm Calm - N/A   Clear
12:55 AM 42.8 °F 41.1 °F 28.4 °F 57% 30.19 in 10.0 mi North 3.5 mph - N/A   Clear
1:15 AM 42.8 °F 41.1 °F 28.4 °F 57% 30.19 in 10.0 mi NNW 3.5 mph - N/A   Clear
1:35 AM 44.6 °F 43.1 °F 28.4 °F 53% 30.20 in 10.0 mi NNW 3.5 mph - N/A   Clear
1:55 AM 44.6 °F - 26.6 °F 49% 30.20 in 10.0 mi Calm Calm - N/A   Clear
2:15 AM 42.8 °F 41.1 °F 26.6 °F 53% 30.20 in 10.0 mi WSW 3.5 mph - N/A   Clear
2:35 AM 41.0 °F - 26.6 °F 57% 30.21 in 10.0 mi Calm Calm - N/A   Clear
2:55 AM 41.0 °F 38.0 °F 26.6 °F 57% 30.20 in 10.0 mi North 4.6 mph - N/A   Clear
3:15 AM 39.2 °F - 28.4 °F 65% 30.20 in 10.0 mi Calm Calm - N/A   Clear
3:35 AM 41.0 °F - 28.4 °F 61% 30.20 in 10.0 mi Calm Calm - N/A   Clear
3:55 AM 41.0 °F - 26.6 °F 57% 30.19 in 10.0 mi Calm Calm - N/A   Clear
4:15 AM 39.2 °F - 26.6 °F 61% 30.19 in 10.0 mi Calm Calm - N/A   Clear
4:35 AM 39.2 °F - 28.4 °F 65% 30.20 in 10.0 mi Calm Calm - N/A   Clear
4:55 AM 39.2 °F - 26.6 °F 61% 30.20 in 10.0 mi Calm Calm - N/A   Clear
5:15 AM 39.2 °F - 26.6 °F 61% 30.20 in 10.0 mi Calm Calm - N/A   Clear
5:35 AM 39.2 °F - 28.4 °F 65% 30.20 in 10.0 mi Calm Calm - N/A   Clear
5:55 AM 39.2 °F - 26.6 °F 61% 30.20 in 10.0 mi Calm Calm - N/A   Clear
6:15 AM 39.2 °F - 28.4 °F 65% 30.20 in 10.0 mi Calm Calm - N/A   Clear
6:35 AM 41.0 °F - 28.4 °F 61% 30.19 in 10.0 mi Calm Calm - N/A   Clear
6:55 AM 41.0 °F - 26.6 °F 57% 30.20 in 10.0 mi Calm Calm - N/A   Clear
7:15 AM 39.2 °F - 26.6 °F 61% 30.20 in 10.0 mi Calm Calm - N/A   Clear
7:35 AM 41.0 °F 39.0 °F 28.4 °F 61% 30.20 in 10.0 mi North 3.5 mph - N/A   Clear
7:55 AM 44.6 °F - 28.4 °F 53% 30.21 in 10.0 mi Calm Calm - N/A   Clear
8:15 AM 46.4 °F - 28.4 °F 50% 30.22 in 10.0 mi Calm Calm - N/A   Clear
8:35 AM 46.4 °F - 28.4 °F 50% 30.22 in 10.0 mi Calm Calm - N/A   Clear
8:55 AM 44.6 °F - 28.4 °F 53% 30.22 in 10.0 mi Calm Calm - N/A   Clear
9:15 AM 46.4 °F - 28.4 °F 50% 30.22 in 10.0 mi Calm Calm - N/A   Clear
9:35 AM 48.2 °F - 28.4 °F 46% 30.22 in 10.0 mi Calm Calm - N/A   Clear
9:55 AM 50.0 °F - 28.4 °F 43% 30.22 in - Calm Calm - N/A   Clear
10:15 AM 51.8 °F - 28.4 °F 41% 30.21 in 10.0 mi Calm Calm - N/A   Clear
10:35 AM 51.8 °F - 28.4 °F 41% 30.20 in 10.0 mi Calm Calm - N/A   Clear
10:55 AM 53.6 °F - 26.6 °F 35% 30.19 in 10.0 mi Calm Calm - N/A   Clear
11:15 AM 55.4 °F - 26.6 °F 33% 30.17 in 10.0 mi Calm Calm - N/A   Clear
11:35 AM 57.2 °F - 26.6 °F 31% 30.16 in 10.0 mi Calm Calm - N/A   Clear
11:55 AM 59.0 °F - 24.8 °F 27% 30.13 in 10.0 mi Calm Calm - N/A   Clear
12:15 PM 59.0 °F - 24.8 °F 27% 30.12 in 10.0 mi Calm Calm - N/A   Clear
12:35 PM 60.8 °F - 24.8 °F 25% 30.10 in 10.0 mi Calm Calm - N/A   Clear
12:55 PM 60.8 °F - 26.6 °F 27% 30.09 in 10.0 mi Calm Calm - N/A   Clear
1:15 PM 62.6 °F - 26.6 °F 26% 30.08 in 10.0 mi Calm Calm - N/A   Clear
1:35 PM 62.6 °F - 26.6 °F 26% 30.07 in 10.0 mi Calm Calm - N/A   Clear
1:55 PM 62.6 °F - 26.6 °F 26% 30.06 in 10.0 mi NE 5.8 mph - N/A   Clear
2:15 PM 64.4 °F - 24.8 °F 22% 30.05 in 10.0 mi East 6.9 mph - N/A   Clear
2:35 PM 64.4 °F - 24.8 °F 22% 30.04 in 10.0 mi East 8.1 mph - N/A   Clear
2:55 PM 64.4 °F - 24.8 °F 22% 30.04 in 10.0 mi East 6.9 mph - N/A   Clear
3:15 PM 64.4 °F - 24.8 °F 22% 30.03 in 10.0 mi ESE 10.4 mph - N/A   Clear
3:35 PM 62.6 °F - 26.6 °F 26% 30.03 in 10.0 mi ESE 10.4 mph - N/A   Clear
3:55 PM 62.6 °F - 26.6 °F 26% 30.03 in 10.0 mi ESE 6.9 mph - N/A   Clear
4:15 PM 62.6 °F - 26.6 °F 26% 30.03 in 10.0 mi East 3.5 mph - N/A   Clear
4:35 PM 59.0 °F - 26.6 °F 29% 30.03 in 10.0 mi NE 4.6 mph - N/A   Clear
4:55 PM 60.8 °F - 26.6 °F 27% 30.03 in 10.0 mi East 6.9 mph - N/A   Clear
5:15 PM 59.0 °F - 26.6 °F 29% 30.03 in 10.0 mi ENE 4.6 mph - N/A   Clear
5:35 PM 59.0 °F - 26.6 °F 29% 30.02 in 10.0 mi East 5.8 mph - N/A   Clear
5:55 PM 57.2 °F - 26.6 °F 31% 30.02 in 10.0 mi Calm Calm - N/A   Clear
6:15 PM 55.4 °F - 26.6 °F 33% 30.02 in 10.0 mi Calm Calm - N/A   Clear
6:35 PM 57.2 °F - 26.6 °F 31% 30.01 in 10.0 mi SSE 5.8 mph - N/A   Clear
6:55 PM 53.6 °F - 28.4 °F 38% 30.01 in 10.0 mi NE 3.5 mph - N/A   Clear
7:15 PM 57.2 °F - 26.6 °F 31% 30.00 in 10.0 mi SSE 4.6 mph - N/A   Clear
7:35 PM 55.4 °F - 26.6 °F 33% 29.99 in 10.0 mi Calm Calm - N/A   Clear
7:55 PM 51.8 °F - 28.4 °F 41% 29.99 in 10.0 mi ENE 3.5 mph - N/A   Clear
8:15 PM 51.8 °F - 28.4 °F 41% 29.98 in 10.0 mi Calm Calm - N/A   Clear
8:35 PM 51.8 °F - 28.4 °F 41% 29.97 in 10.0 mi Calm Calm - N/A   Clear
8:55 PM 50.0 °F - 28.4 °F 43% 29.98 in 10.0 mi NNW 5.8 mph - N/A   Clear
9:15 PM 53.6 °F - 28.4 °F 38% 29.99 in 10.0 mi North 5.8 mph - N/A   Clear
9:35 PM 53.6 °F - 28.4 °F 38% 29.99 in 10.0 mi North 5.8 mph - N/A   Clear
9:55 PM 51.8 °F - 28.4 °F 41% 29.99 in 10.0 mi Calm Calm - N/A   Clear
10:15 PM 51.8 °F - 28.4 °F 41% 29.99 in 10.0 mi Calm Calm - N/A   Clear
10:35 PM 51.8 °F - 28.4 °F 41% 29.98 in 10.0 mi NE 3.5 mph - N/A   Clear
10:55 PM 50.0 °F - 30.2 °F 47% 29.97 in 10.0 mi NE 5.8 mph - N/A   Clear
11:15 PM 51.8 °F - 28.4 °F 41% 29.95 in 10.0 mi ENE 5.8 mph - N/A   Clear
11:35 PM 50.0 °F - 28.4 °F 43% 29.96 in - NNE 5.8 mph - N/A   Clear
11:55 PM 50.0 °F - 28.4 °F 43% 29.94 in 10.0 mi NE 8.1 mph - N/A   Clear